Location: Honolulu
(21.3069°N, 157.8583°W)
Time: 07:19:04
(UTC-10:00)

A-11 Canister half - Pass Details

Date: 12 May 2026
Orbit: 1524 x 1684 km, 47.3° (Epoch: 6 June)

Event Time Altitude Azimuth Distance (km) Brightness Sun altitude
Rises 20:40:44 0° 305° (NW) 4,785 13.1 -21.7°
Reaches altitude 10° 20:46:22 10° 330° (NNW) 3,838 11.9 -22.8°
Maximum altitude 20:50:39 13° 357° (N) 3,601 11.3 -23.7°
Drops below altitude 10° 20:55:00 10° 24° (NNE) 3,892 11.2 -24.5°
Sets 21:00:49 0° 49° (NE) 4,909 11.5 -25.6°
